| time (UTC) | temp F | wind direction | speed MPH | gust MPH | rain 1hr in | rain 24hr in | rain mn in | humidity % | barometer mb |
| 20260510185546 | 100 | 178 | 2.0 | 4.0 | 0.00 | 0.00 | 0.00 | 9 | 1008.1 |
| 20260510185046 | 100 | 84 | 1.0 | 8.0 | 0.00 | 0.00 | 0.00 | 9 | 1008.2 |
| 20260510184545 | 99 | 81 | 2.0 | 8.0 | 0.00 | 0.00 | 0.00 | 9 | 1008.3 |
| 20260510184043 | 99 | 65 | 2.0 | 7.0 | 0.00 | 0.00 | 0.00 | 9 | 1008.3 |
| 20260510183542 | 98 | 103 | 3.0 | 7.0 | 0.00 | 0.00 | 0.00 | 10 | 1008.4 |
| 20260510183050 | 98 | 117 | 0.0 | 3.0 | 0.00 | 0.00 | 0.00 | 9 | 1008.4 |
| 20260510182542 | 98 | 153 | 1.0 | 5.0 | 0.00 | 0.00 | 0.00 | 10 | 1008.5 |
| 20260510182040 | 98 | 138 | 2.0 | 5.0 | 0.00 | 0.00 | 0.00 | 10 | 1008.5 |
| 20260510181610 | 98 | 138 | 1.0 | 4.0 | 0.00 | 0.00 | 0.00 | 10 | 1008.5 |
| 20260510181036 | 97 | 55 | 1.0 | 3.0 | 0.00 | 0.00 | 0.00 | 10 | 1008.6 |
| 20260510180534 | 97 | 327 | 0.0 | 6.0 | 0.00 | 0.00 | 0.00 | 10 | 1008.6 |
| 20260510180041 | 96 | 172 | 1.0 | 4.0 | 0.00 | 0.00 | 0.00 | 10 | 1008.6 |
| 20260510175535 | 96 | 178 | 1.0 | 3.0 | 0.00 | 0.00 | 0.00 | 10 | 1008.6 |
| 20260510175032 | 95 | 146 | 0.0 | 3.0 | 0.00 | 0.00 | 0.00 | 11 | 1008.6 |
| 20260510174548 | 94 | 355 | 0.0 | 5.0 | 0.00 | 0.00 | 0.00 | 10 | 1008.5 |
| 20260510174028 | 94 | 75 | 2.0 | 5.0 | 0.00 | 0.00 | 0.00 | 10 | 1008.5 |
| 20260510173526 | 94 | 28 | 1.0 | 5.0 | 0.00 | 0.00 | 0.00 | 10 | 1008.5 |
| 20260510173027 | 94 | 59 | 1.0 | 5.0 | 0.00 | 0.00 | 0.00 | 10 | 1008.5 |
| 20260510172525 | 94 | 51 | 1.0 | 5.0 | 0.00 | 0.00 | 0.00 | 10 | 1008.4 |
| 20260510172024 | 94 | 100 | 0.0 | 5.0 | 0.00 | 0.00 | 0.00 | 11 | 1008.4 |
| 20260510171523 | 93 | 59 | 3.0 | 6.0 | 0.00 | 0.00 | 0.00 | 11 | 1008.4 |
| 20260510171020 | 93 | 95 | 2.0 | 5.0 | 0.00 | 0.00 | 0.00 | 11 | 1008.4 |
| 20260510170519 | 92 | 103 | 2.0 | 7.0 | 0.00 | 0.00 | 0.00 | 10 | 1008.4 |
| 20260510170018 | 92 | 61 | 3.0 | 8.0 | 0.00 | 0.00 | 0.00 | 11 | 1008.3 |
| 20260510165517 | 91 | 340 | 2.0 | 10.0 | 0.00 | 0.00 | 0.00 | 11 | 1008.2 |
| 20260510165015 | 91 | 34 | 5.0 | 10.0 | 0.00 | 0.00 | 0.00 | 11 | 1008.2 |
| 20260510164514 | 91 | 53 | 6.0 | 10.0 | 0.00 | 0.00 | 0.00 | 11 | 1008.1 |
| 20260510164013 | 91 | 36 | 5.0 | 11.0 | 0.00 | 0.00 | 0.00 | 11 | 1008.1 |
| 20260510163512 | 90 | 49 | 6.0 | 10.0 | 0.00 | 0.00 | 0.00 | 12 | 1008.1 |
| 20260510163013 | 90 | 29 | 5.0 | 11.0 | 0.00 | 0.00 | 0.00 | 12 | 1008.0 |
| 20260510162510 | 89 | 19 | 4.0 | 11.0 | 0.00 | 0.00 | 0.00 | 12 | 1008.0 |
| 20260510162008 | 89 | 57 | 7.0 | 11.0 | 0.00 | 0.00 | 0.00 | 12 | 1008.0 |
| 20260510161507 | 89 | 36 | 5.0 | 10.0 | 0.00 | 0.00 | 0.00 | 14 | 1008.0 |
| 20260510161006 | 88 | 55 | 4.0 | 8.0 | 0.00 | 0.00 | 0.00 | 13 | 1008.0 |
| 20260510160504 | 88 | 29 | 3.0 | 8.0 | 0.00 | 0.00 | 0.00 | 13 | 1008.0 |
| 20260510160008 | 87 | 350 | 2.0 | 6.0 | 0.00 | 0.00 | 0.00 | 13 | 1008.0 |
| 20260510155502 | 87 | 92 | 3.0 | 6.0 | 0.00 | 0.00 | 0.00 | 13 | 1008.1 |
| 20260510155100 | 87 | 40 | 2.0 | 5.0 | 0.00 | 0.00 | 0.00 | 16 | 1008.1 |
| 20260510154603 | 87 | 43 | 2.0 | 6.0 | 0.00 | 0.00 | 0.00 | 15 | 1008.1 |
| 20260510154100 | 87 | 36 | 1.0 | 6.0 | 0.00 | 0.00 | 0.00 | 15 | 1008.1 |
| 20260510153556 | 86 | 44 | 1.0 | 5.0 | 0.00 | 0.00 | 0.00 | 13 | 1008.2 |
| 20260510153105 | 86 | 112 | 0.0 | 5.0 | 0.00 | 0.00 | 0.00 | 14 | 1008.2 |
| 20260510152555 | 85 | 50 | 1.0 | 5.0 | 0.00 | 0.00 | 0.00 | 13 | 1008.2 |
| 20260510152052 | 85 | 92 | 2.0 | 5.0 | 0.00 | 0.00 | 0.00 | 14 | 1008.1 |
| 20260510151551 | 85 | 54 | 2.0 | 4.0 | 0.00 | 0.00 | 0.00 | 14 | 1008.1 |
| 20260510151050 | 85 | 62 | 3.0 | 5.0 | 0.00 | 0.00 | 0.00 | 13 | 1008.1 |
| 20260510150549 | 85 | 5 | 2.0 | 5.0 | 0.00 | 0.00 | 0.00 | 14 | 1008.1 |
| 20260510150049 | 85 | 55 | 2.0 | 5.0 | 0.00 | 0.00 | 0.00 | 14 | 1008.1 |
| 20260510145549 | 85 | 56 | 1.0 | 5.0 | 0.00 | 0.00 | 0.00 | 14 | 1008.0 |
| 20260510145045 | 85 | 65 | 1.0 | 3.0 | 0.00 | 0.00 | 0.00 | 14 | 1008.0 |
| 20260510144544 | 83 | 46 | 0.0 | 2.0 | 0.00 | 0.00 | 0.00 | 14 | 1007.9 |
| 20260510144042 | 83 | 311 | 0.0 | 0.0 | 0.00 | 0.00 | 0.00 | 16 | 1007.9 |
| 20260510143540 | 82 | 311 | 0.0 | 0.0 | 0.00 | 0.00 | 0.00 | 16 | 1007.9 |
| 20260510143039 | 81 | 336 | 0.0 | 0.0 | 0.00 | 0.00 | 0.00 | 20 | 1007.9 |
| 20260510142543 | 81 | 78 | 0.0 | 0.0 | 0.00 | 0.00 | 0.00 | 20 | 1007.8 |
| 20260510142037 | 80 | 78 | 0.0 | 0.0 | 0.00 | 0.00 | 0.00 | 31 | 1007.8 |
| 20260510141538 | 79 | 78 | 0.0 | 0.0 | 0.00 | 0.00 | 0.00 | 28 | 1007.7 |
| 20260510141035 | 78 | 78 | 0.0 | 0.0 | 0.00 | 0.00 | 0.00 | 29 | 1007.7 |
| 20260510140533 | 77 | 78 | 0.0 | 0.0 | 0.00 | 0.00 | 0.00 | 24 | 1007.6 |
| 20260510140031 | 77 | 78 | 0.0 | 0.0 | 0.00 | 0.00 | 0.00 | 17 | 1007.5 |
| 20260510135530 | 76 | 78 | 0.0 | 0.0 | 0.00 | 0.00 | 0.00 | 22 | 1007.4 |
| 20260510135028 | 75 | 78 | 0.0 | 0.0 | 0.00 | 0.00 | 0.00 | 24 | 1007.3 |
| 20260510134526 | 75 | 78 | 0.0 | 0.0 | 0.00 | 0.00 | 0.00 | 22 | 1007.2 |
| 20260510134026 | 74 | 355 | 0.0 | 0.0 | 0.00 | 0.00 | 0.00 | 24 | 1007.1 |
| 20260510133524 | 74 | 355 | 0.0 | 0.0 | 0.00 | 0.00 | 0.00 | 22 | 1007.0 |
| 20260510133023 | 74 | 355 | 0.0 | 0.0 | 0.00 | 0.00 | 0.00 | 25 | 1007.0 |
| 20260510132522 | 74 | 355 | 0.0 | 0.0 | 0.00 | 0.00 | 0.00 | 23 | 1006.9 |
| 20260510132021 | 74 | 355 | 0.0 | 0.0 | 0.00 | 0.00 | 0.00 | 23 | 1006.8 |
| 20260510131519 | 74 | 355 | 0.0 | 0.0 | 0.00 | 0.00 | 0.00 | 20 | 1006.8 |
| 20260510131022 | 74 | 355 | 0.0 | 0.0 | 0.00 | 0.00 | 0.00 | 20 | 1006.7 |
| 20260510130516 | 74 | 355 | 0.0 | 0.0 | 0.00 | 0.00 | 0.00 | 21 | 1006.6 |
| 20260510130016 | 74 | 355 | 0.0 | 0.0 | 0.00 | 0.00 | 0.00 | 20 | 1006.6 |
| 20260510125515 | 74 | 355 | 0.0 | 0.0 | 0.00 | 0.00 | 0.00 | 18 | 1006.6 |
| 20260510125013 | 74 | 355 | 0.0 | 0.0 | 0.00 | 0.00 | 0.00 | 18 | 1006.5 |
| 20260510124514 | 74 | 42 | 0.0 | 1.0 | 0.00 | 0.00 | 0.00 | 21 | 1006.5 |
| 20260510124011 | 74 | 42 | 0.0 | 1.0 | 0.00 | 0.00 | 0.00 | 18 | 1006.5 |
| 20260510123510 | 75 | 42 | 0.0 | 3.0 | 0.00 | 0.00 | 0.00 | 20 | 1006.4 |
| 20260510123010 | 75 | 42 | 0.0 | 3.0 | 0.00 | 0.00 | 0.00 | 18 | 1006.5 |
| 20260510122510 | 75 | 61 | 2.0 | 3.0 | 0.00 | 0.00 | 0.00 | 17 | 1006.5 |
| 20260510122010 | 75 | 92 | 0.0 | 2.0 | 0.00 | 0.00 | 0.00 | 18 | 1006.3 |
| 20260510121509 | 76 | 104 | 0.0 | 2.0 | 0.00 | 0.00 | 0.00 | 17 | 1006.2 |
| 20260510121010 | 76 | 50 | 0.0 | 2.0 | 0.00 | 0.00 | 0.00 | 17 | 1006.2 |
| 20260510120509 | 76 | 21 | 0.0 | 2.0 | 0.00 | 0.00 | 0.00 | 17 | 1006.2 |
| 20260510120008 | 77 | 45 | 1.0 | 2.0 | 0.00 | 0.00 | 0.00 | 16 | 1006.2 |
| 20260510115508 | 77 | 53 | 0.0 | 2.0 | 0.00 | 0.00 | 0.00 | 15 | 1006.2 |
| 20260510115007 | 77 | 36 | 0.0 | 2.0 | 0.00 | 0.00 | 0.00 | 18 | 1006.1 |
| 20260510114509 | 77 | 41 | 0.0 | 2.0 | 0.00 | 0.00 | 0.00 | 19 | 1006.1 |
| 20260510114006 | 78 | 302 | 0.0 | 2.0 | 0.00 | 0.00 | 0.00 | 18 | 1006.0 |
| 20260510113507 | 77 | 67 | 1.0 | 3.0 | 0.00 | 0.00 | 0.00 | 15 | 1006.1 |
| 20260510113006 | 76 | 56 | 1.0 | 3.0 | 0.00 | 0.00 | 0.00 | 16 | 1006.1 |
| 20260510112508 | 76 | 46 | 1.0 | 2.0 | 0.00 | 0.00 | 0.00 | 17 | 1006.1 |
| 20260510112006 | 75 | 323 | 0.0 | 2.0 | 0.00 | 0.00 | 0.00 | 18 | 1006.1 |
| 20260510111508 | 75 | 317 | 0.0 | 3.0 | 0.00 | 0.00 | 0.00 | 17 | 1006.0 |
| 20260510111004 | 76 | 316 | 1.0 | 3.0 | 0.00 | 0.00 | 0.00 | 21 | 1006.0 |
| 20260510110502 | 76 | 52 | 0.0 | 2.0 | 0.00 | 0.00 | 0.00 | 21 | 1005.9 |
| 20260510110006 | 76 | 38 | 0.0 | 2.0 | 0.00 | 0.00 | 0.00 | 18 | 1005.9 |
| 20260510105601 | 77 | 32 | 0.0 | 1.0 | 0.00 | 0.00 | 0.00 | 18 | 1005.8 |
| 20260510105059 | 77 | 312 | 0.0 | 2.0 | 0.00 | 0.00 | 0.00 | 21 | 1005.8 |
| 20260510104559 | 77 | 312 | 0.0 | 2.0 | 0.00 | 0.00 | 0.00 | 18 | 1005.6 |
| 20260510104100 | 77 | 32 | 0.0 | 2.0 | 0.00 | 0.00 | 0.00 | 16 | 1005.7 |
| 20260510103556 | 78 | 20 | 0.0 | 2.0 | 0.00 | 0.00 | 0.00 | 21 | 1005.7 |
| 20260510103056 | 78 | 237 | 0.0 | 2.0 | 0.00 | 0.00 | 0.00 | 15 | 1005.6 |
| 20260510102556 | 78 | 252 | 0.0 | 0.0 | 0.00 | 0.00 | 0.00 | 16 | 1005.7 |
| 20260510102054 | 79 | 225 | 0.0 | 1.0 | 0.00 | 0.00 | 0.00 | 19 | 1005.7 |
| 20260510101559 | 79 | 225 | 0.0 | 1.0 | 0.00 | 0.00 | 0.00 | 18 | 1005.7 |
| 20260510101051 | 80 | 293 | 0.0 | 1.0 | 0.00 | 0.00 | 0.00 | 17 | 1005.7 |
| 20260510100554 | 80 | 293 | 0.0 | 2.0 | 0.00 | 0.00 | 0.00 | 19 | 1005.7 |
| 20260510100112 | 81 | 293 | 1.0 | 2.0 | 0.00 | 0.00 | 0.00 | 17 | 1005.7 |
| 20260510095551 | 81 | 244 | 0.0 | 3.0 | 0.00 | 0.00 | 0.00 | 15 | 1005.7 |
| 20260510095046 | 81 | 116 | 0.0 | 3.0 | 0.00 | 0.00 | 0.00 | 14 | 1005.7 |
| 20260510094545 | 82 | 163 | 0.0 | 3.0 | 0.00 | 0.00 | 0.00 | 15 | 1005.7 |
| 20260510094044 | 82 | 196 | 0.0 | 8.0 | 0.00 | 0.00 | 0.00 | 16 | 1005.5 |
| 20260510093543 | 82 | 84 | 4.0 | 10.0 | 0.00 | 0.00 | 0.00 | 14 | 1005.3 |
| 20260510093048 | 84 | 67 | 7.0 | 10.0 | 0.00 | 0.00 | 0.00 | 14 | 1005.3 |
| 20260510092540 | 87 | 63 | 4.0 | 8.0 | 0.00 | 0.00 | 0.00 | 14 | 1005.2 |
| 20260510092038 | 89 | 61 | 5.0 | 10.0 | 0.00 | 0.00 | 0.00 | 12 | 1005.1 |
| 20260510091539 | 89 | 312 | 4.0 | 10.0 | 0.00 | 0.00 | 0.00 | 11 | 1005.0 |
| 20260510091037 | 90 | 283 | 4.0 | 8.0 | 0.00 | 0.00 | 0.00 | 11 | 1005.0 |
| 20260510090537 | 89 | 319 | 4.0 | 9.0 | 0.00 | 0.00 | 0.00 | 11 | 1004.8 |
| 20260510090038 | 90 | 261 | 5.0 | 9.0 | 0.00 | 0.00 | 0.00 | 11 | 1004.8 |
| 20260510085537 | 90 | 281 | 4.0 | 12.0 | 0.00 | 0.00 | 0.00 | 11 | 1004.8 |
| 20260510085036 | 90 | 254 | 6.0 | 12.0 | 0.00 | 0.00 | 0.00 | 11 | 1004.8 |
| 20260510084537 | 90 | 289 | 7.0 | 12.0 | 0.00 | 0.00 | 0.00 | 11 | 1004.7 |
| 20260510084036 | 90 | 275 | 5.0 | 15.0 | 0.00 | 0.00 | 0.00 | 10 | 1004.8 |
| 20260510083536 | 90 | 294 | 7.0 | 15.0 | 0.00 | 0.00 | 0.00 | 11 | 1004.8 |
| 20260510083044 | 90 | 293 | 7.0 | 13.0 | 0.00 | 0.00 | 0.00 | 11 | 1004.7 |
| 20260510082535 | 90 | 333 | 7.0 | 14.0 | 0.00 | 0.00 | 0.00 | 11 | 1004.7 |
| 20260510082035 | 90 | 274 | 4.0 | 13.0 | 0.00 | 0.00 | 0.00 | 12 | 1004.8 |
| 20260510081539 | 90 | 292 | 7.0 | 12.0 | 0.00 | 0.00 | 0.00 | 11 | 1004.8 |
| 20260510081036 | 90 | 317 | 8.0 | 12.0 | 0.00 | 0.00 | 0.00 | 12 | 1004.7 |
| 20260510080536 | 90 | 308 | 8.0 | 16.0 | 0.00 | 0.00 | 0.00 | 11 | 1004.7 |
| 20260510080036 | 90 | 295 | 8.0 | 16.0 | 0.00 | 0.00 | 0.00 | 11 | 1004.7 |
| 20260510075536 | 90 | 304 | 6.0 | 14.0 | 0.00 | 0.00 | 0.00 | 12 | 1004.8 |
| 20260510075033 | 89 | 302 | 7.0 | 13.0 | 0.00 | 0.00 | 0.00 | 12 | 1004.8 |
| 20260510074534 | 90 | 297 | 7.0 | 13.0 | 0.00 | 0.00 | 0.00 | 11 | 1004.9 |
| 20260510074032 | 90 | 277 | 8.0 | 13.0 | 0.00 | 0.00 | 0.00 | 11 | 1004.9 |
| 20260510073532 | 90 | 292 | 7.0 | 15.0 | 0.00 | 0.00 | 0.00 | 11 | 1004.9 |
| 20260510073031 | 90 | 285 | 5.0 | 15.0 | 0.00 | 0.00 | 0.00 | 12 | 1004.9 |
| 20260510072531 | 90 | 319 | 9.0 | 15.0 | 0.00 | 0.00 | 0.00 | 11 | 1005.0 |
| 20260510072032 | 90 | 305 | 7.0 | 14.0 | 0.00 | 0.00 | 0.00 | 11 | 1004.9 |
| 20260510071537 | 90 | 248 | 7.0 | 13.0 | 0.00 | 0.00 | 0.00 | 12 | 1004.8 |
| 20260510071028 | 90 | 307 | 7.0 | 14.0 | 0.00 | 0.00 | 0.00 | 11 | 1004.9 |
| 20260510070528 | 91 | 272 | 7.0 | 14.0 | 0.00 | 0.00 | 0.00 | 11 | 1004.9 |
| 20260510070027 | 91 | 287 | 7.0 | 13.0 | 0.00 | 0.00 | 0.00 | 11 | 1004.8 |
| 20260510065527 | 91 | 292 | 7.0 | 17.0 | 0.00 | 0.00 | 0.00 | 10 | 1004.8 |
| 20260510065026 | 92 | 346 | 10.0 | 19.0 | 0.00 | 0.00 | 0.00 | 10 | 1004.8 |
| 20260510064526 | 91 | 310 | 10.0 | 15.0 | 0.00 | 0.00 | 0.00 | 10 | 1004.7 |
| 20260510064026 | 91 | 275 | 9.0 | 15.0 | 0.00 | 0.00 | 0.00 | 11 | 1004.8 |
| 20260510063530 | 91 | 280 | 7.0 | 17.0 | 0.00 | 0.00 | 0.00 | 9 | 1004.8 |
| 20260510063027 | 91 | 322 | 6.0 | 17.0 | 0.00 | 0.00 | 0.00 | 10 | 1004.7 |
| 20260510062526 | 91 | 290 | 9.0 | 14.0 | 0.00 | 0.00 | 0.00 | 9 | 1004.7 |
| 20260510062025 | 91 | 259 | 7.0 | 15.0 | 0.00 | 0.00 | 0.00 | 9 | 1004.7 |
| 20260510061538 | 92 | 318 | 9.0 | 16.0 | 0.00 | 0.00 | 0.00 | 9 | 1004.7 |
| 20260510061027 | 92 | 284 | 9.0 | 16.0 | 0.00 | 0.00 | 0.00 | 8 | 1004.7 |
| 20260510060524 | 91 | 266 | 9.0 | 16.0 | 0.00 | 0.00 | 0.00 | 8 | 1004.5 |
| 20260510060025 | 91 | 288 | 8.0 | 15.0 | 0.00 | 0.00 | 0.00 | 9 | 1004.6 |
| 20260510055524 | 91 | 280 | 8.0 | 14.0 | 0.00 | 0.00 | 0.00 | 10 | 1004.6 |
| 20260510055024 | 91 | 296 | 7.0 | 14.0 | 0.00 | 0.00 | 0.00 | 9 | 1004.6 |
| 20260510054524 | 92 | 289 | 6.0 | 14.0 | 0.00 | 0.00 | 0.00 | 10 | 1004.6 |
| 20260510054024 | 91 | 309 | 8.0 | 15.0 | 0.00 | 0.00 | 0.00 | 9 | 1004.6 |
| 20260510053524 | 91 | 331 | 8.0 | 15.0 | 0.00 | 0.00 | 0.00 | 10 | 1004.6 |
| 20260510053024 | 91 | 285 | 7.0 | 15.0 | 0.00 | 0.00 | 0.00 | 11 | 1004.5 |
| 20260510052528 | 92 | 273 | 7.0 | 14.0 | 0.00 | 0.00 | 0.00 | 10 | 1004.5 |
| 20260510052023 | 92 | 310 | 6.0 | 11.0 | 0.00 | 0.00 | 0.00 | 10 | 1004.6 |
| 20260510051523 | 92 | 299 | 6.0 | 13.0 | 0.00 | 0.00 | 0.00 | 10 | 1004.6 |
| 20260510051023 | 92 | 293 | 7.0 | 15.0 | 0.00 | 0.00 | 0.00 | 10 | 1004.6 |
| 20260510050527 | 92 | 285 | 8.0 | 15.0 | 0.00 | 0.00 | 0.00 | 9 | 1004.6 |
| 20260510050022 | 93 | 291 | 6.0 | 13.0 | 0.00 | 0.00 | 0.00 | 9 | 1004.7 |
| 20260510045522 | 93 | 262 | 5.0 | 12.0 | 0.00 | 0.00 | 0.00 | 10 | 1004.5 |
| 20260510045022 | 93 | 259 | 6.0 | 12.0 | 0.00 | 0.00 | 0.00 | 10 | 1004.5 |
| 20260510044523 | 93 | 294 | 5.0 | 12.0 | 0.00 | 0.00 | 0.00 | 9 | 1004.5 |
| 20260510044025 | 93 | 278 | 6.0 | 14.0 | 0.00 | 0.00 | 0.00 | 9 | 1004.4 |
| 20260510043522 | 93 | 275 | 5.0 | 10.0 | 0.00 | 0.00 | 0.00 | 10 | 1004.4 |
| 20260510043023 | 93 | 247 | 5.0 | 9.0 | 0.00 | 0.00 | 0.00 | 10 | 1004.3 |
| 20260510042521 | 93 | 292 | 2.0 | 8.0 | 0.00 | 0.00 | 0.00 | 9 | 1004.2 |
| 20260510042025 | 93 | 292 | 4.0 | 10.0 | 0.00 | 0.00 | 0.00 | 9 | 1004.2 |
| 20260510041522 | 93 | 309 | 6.0 | 11.0 | 0.00 | 0.00 | 0.00 | 9 | 1004.2 |
| 20260510041021 | 93 | 298 | 4.0 | 11.0 | 0.00 | 0.00 | 0.00 | 9 | 1004.1 |
| 20260510040521 | 93 | 295 | 3.0 | 11.0 | 0.00 | 0.00 | 0.00 | 10 | 1004.2 |
| 20260510040020 | 93 | 254 | 5.0 | 11.0 | 0.00 | 0.00 | 0.00 | 10 | 1004.1 |
| 20260510035520 | 93 | 234 | 4.0 | 11.0 | 0.00 | 0.00 | 0.00 | 10 | 1004.0 |
| 20260510035022 | 93 | 259 | 5.0 | 11.0 | 0.00 | 0.00 | 0.00 | 9 | 1004.0 |
| 20260510034520 | 94 | 259 | 4.0 | 10.0 | 0.00 | 0.00 | 0.00 | 9 | 1003.9 |
| 20260510034021 | 94 | 253 | 3.0 | 10.0 | 0.00 | 0.00 | 0.00 | 9 | 1003.8 |
| 20260510033521 | 94 | 256 | 4.0 | 10.0 | 0.00 | 0.00 | 0.00 | 9 | 1003.7 |
| 20260510033019 | 94 | 228 | 4.0 | 10.0 | 0.00 | 0.00 | 0.00 | 9 | 1003.7 |
| 20260510032519 | 94 | 219 | 3.0 | 10.0 | 0.00 | 0.00 | 0.00 | 9 | 1003.7 |
| 20260510032020 | 94 | 240 | 5.0 | 10.0 | 0.00 | 0.00 | 0.00 | 9 | 1003.6 |
| 20260510031535 | 94 | 262 | 5.0 | 10.0 | 0.00 | 0.00 | 0.00 | 9 | 1003.5 |
| 20260510031019 | 95 | 256 | 3.0 | 9.0 | 0.00 | 0.00 | 0.00 | 9 | 1003.4 |
| 20260510030518 | 95 | 258 | 3.0 | 10.0 | 0.00 | 0.00 | 0.00 | 9 | 1003.4 |
| 20260510030022 | 95 | 271 | 3.0 | 10.0 | 0.00 | 0.00 | 0.00 | 9 | 1003.4 |
| 20260510025518 | 95 | 290 | 5.0 | 10.0 | 0.00 | 0.00 | 0.00 | 9 | 1003.3 |
| 20260510025018 | 95 | 279 | 4.0 | 9.0 | 0.00 | 0.00 | 0.00 | 9 | 1003.2 |
| 20260510024532 | 95 | 292 | 4.0 | 7.0 | 0.00 | 0.00 | 0.00 | 9 | 1003.1 |
| 20260510024017 | 95 | 283 | 2.0 | 9.0 | 0.00 | 0.00 | 0.00 | 9 | 1003.0 |
| 20260510023517 | 96 | 292 | 4.0 | 9.0 | 0.00 | 0.00 | 0.00 | 9 | 1003.0 |
| 20260510023017 | 96 | 291 | 3.0 | 7.0 | 0.00 | 0.00 | 0.00 | 9 | 1002.9 |
| 20260510022522 | 96 | 293 | 2.0 | 8.0 | 0.00 | 0.00 | 0.00 | 9 | 1002.9 |
| 20260510022017 | 96 | 279 | 3.0 | 8.0 | 0.00 | 0.00 | 0.00 | 9 | 1002.9 |
| 20260510021521 | 96 | 295 | 1.0 | 7.0 | 0.00 | 0.00 | 0.00 | 9 | 1002.8 |
| 20260510021016 | 97 | 272 | 2.0 | 8.0 | 0.00 | 0.00 | 0.00 | 8 | 1002.8 |
| 20260510020516 | 97 | 305 | 2.0 | 7.0 | 0.00 | 0.00 | 0.00 | 8 | 1002.8 |
| 20260510020016 | 97 | 244 | 1.0 | 5.0 | 0.00 | 0.00 | 0.00 | 9 | 1002.7 |
| 20260510015515 | 98 | 120 | 1.0 | 7.0 | 0.00 | 0.00 | 0.00 | 8 | 1002.8 |
| 20260510015015 | 98 | 224 | 3.0 | 9.0 | 0.00 | 0.00 | 0.00 | 8 | 1002.7 |
| 20260510014517 | 99 | 216 | 3.0 | 8.0 | 0.00 | 0.00 | 0.00 | 8 | 1002.7 |
| 20260510014015 | 99 | 321 | 3.0 | 8.0 | 0.00 | 0.00 | 0.00 | 8 | 1002.7 |
| 20260510013517 | 100 | 208 | 1.0 | 8.0 | 0.00 | 0.00 | 0.00 | 8 | 1002.6 |
| 20260510013015 | 100 | 280 | 2.0 | 8.0 | 0.00 | 0.00 | 0.00 | 8 | 1002.6 |
| 20260510012515 | 100 | 259 | 3.0 | 8.0 | 0.00 | 0.00 | 0.00 | 8 | 1002.6 |
| 20260510012015 | 101 | 254 | 1.0 | 7.0 | 0.00 | 0.00 | 0.00 | 8 | 1002.7 |
| 20260510011515 | 101 | 207 | 1.0 | 7.0 | 0.00 | 0.00 | 0.00 | 8 | 1002.5 |
| 20260510011014 | 101 | 209 | 3.0 | 7.0 | 0.00 | 0.00 | 0.00 | 8 | 1002.6 |
| 20260510010514 | 101 | 292 | 1.0 | 9.0 | 0.00 | 0.00 | 0.00 | 9 | 1002.6 |
| 20260510010013 | 102 | 267 | 1.0 | 9.0 | 0.00 | 0.00 | 0.00 | 8 | 1002.6 |
| 20260510005513 | 102 | 203 | 1.0 | 8.0 | 0.00 | 0.00 | 0.00 | 8 | 1002.6 |
| 20260510005013 | 102 | 194 | 2.0 | 8.0 | 0.00 | 0.00 | 0.00 | 8 | 1002.7 |
| 20260510004512 | 102 | 182 | 3.0 | 11.0 | 0.00 | 0.00 | 0.00 | 8 | 1002.7 |
| 20260510004012 | 102 | 227 | 1.0 | 11.0 | 0.00 | 0.00 | 0.00 | 8 | 1002.6 |
| 20260510003512 | 103 | 216 | 2.0 | 7.0 | 0.00 | 0.00 | 0.00 | 8 | 1002.6 |
| 20260510003026 | 103 | 182 | 1.0 | 7.0 | 0.00 | 0.00 | 0.00 | 7 | 1002.7 |
| 20260510002516 | 103 | 300 | 1.0 | 7.0 | 0.00 | 0.00 | 0.00 | 8 | 1002.7 |
| 20260510002011 | 103 | 190 | 1.0 | 8.0 | 0.00 | 0.00 | 0.00 | 8 | 1002.8 |
| 20260510001515 | 103 | 223 | 3.0 | 11.0 | 0.00 | 0.00 | 0.00 | 8 | 1002.8 |
| 20260510001011 | 103 | 267 | 4.0 | 11.0 | 0.00 | 0.00 | 0.00 | 8 | 1002.7 |
| 20260510000510 | 103 | 240 | 1.0 | 8.0 | 0.00 | 0.00 | 0.00 | 8 | 1002.8 |
| 20260510000009 | 103 | 214 | 2.0 | 7.0 | 0.00 | 0.00 | 0.00 | 8 | 1002.9 |
| 20260509235508 | 104 | 300 | 1.0 | 11.0 | 0.00 | 0.00 | 0.00 | 8 | 1003.0 |
| 20260509235008 | 104 | 153 | 3.0 | 11.0 | 0.00 | 0.00 | 0.00 | 8 | 1002.9 |
| 20260509234521 | 104 | 227 | 2.0 | 7.0 | 0.00 | 0.00 | 0.00 | 8 | 1003.0 |
| 20260509234009 | 103 | 157 | 2.0 | 5.0 | 0.00 | 0.00 | 0.00 | 8 | 1003.0 |
| 20260509233507 | 103 | 261 | 1.0 | 8.0 | 0.00 | 0.00 | 0.00 | 8 | 1003.0 |
| 20260509233009 | 103 | 207 | 2.0 | 10.0 | 0.00 | 0.00 | 0.00 | 8 | 1003.1 |
| 20260509232507 | 103 | 259 | 6.0 | 10.0 | 0.00 | 0.00 | 0.00 | 7 | 1003.1 |
| 20260509232006 | 104 | 295 | 2.0 | 6.0 | 0.00 | 0.00 | 0.00 | 8 | 1003.2 |
| 20260509231506 | 104 | 221 | 2.0 | 7.0 | 0.00 | 0.00 | 0.00 | 8 | 1003.1 |
| 20260509231007 | 104 | 237 | 2.0 | 7.0 | 0.00 | 0.00 | 0.00 | 8 | 1003.2 |
| 20260509230505 | 104 | 278 | 3.0 | 7.0 | 0.00 | 0.00 | 0.00 | 8 | 1003.2 |
| 20260509230011 | 104 | 249 | 2.0 | 9.0 | 0.00 | 0.00 | 0.00 | 8 | 1003.3 |
| 20260509225505 | 104 | 166 | 2.0 | 8.0 | 0.00 | 0.00 | 0.00 | 8 | 1003.3 |
| 20260509225005 | 104 | 215 | 3.0 | 8.0 | 0.00 | 0.00 | 0.00 | 8 | 1003.3 |
| 20260509224503 | 103 | 326 | 3.0 | 7.0 | 0.00 | 0.00 | 0.00 | 8 | 1003.4 |
| 20260509224002 | 104 | 225 | 2.0 | 9.0 | 0.00 | 0.00 | 0.00 | 8 | 1003.6 |
| 20260509223502 | 103 | 209 | 4.0 | 11.0 | 0.00 | 0.00 | 0.00 | 8 | 1003.6 |
| 20260509223001 | 103 | 242 | 4.0 | 12.0 | 0.00 | 0.00 | 0.00 | 8 | 1003.7 |
| 20260509222600 | 103 | 264 | 4.0 | 12.0 | 0.00 | 0.00 | 0.00 | 9 | 1003.7 |
| 20260509222102 | 104 | 236 | 2.0 | 8.0 | 0.00 | 0.00 | 0.00 | 9 | 1003.8 |
| 20260509221559 | 104 | 259 | 2.0 | 11.0 | 0.00 | 0.00 | 0.00 | 9 | 1003.9 |
| 20260509221101 | 103 | 202 | 2.0 | 11.0 | 0.00 | 0.00 | 0.00 | 8 | 1004.0 |
| 20260509220558 | 104 | 280 | 3.0 | 11.0 | 0.00 | 0.00 | 0.00 | 9 | 1004.0 |
| 20260509220057 | 104 | 265 | 4.0 | 10.0 | 0.00 | 0.00 | 0.00 | 9 | 1004.0 |
| 20260509215557 | 104 | 271 | 2.0 | 8.0 | 0.00 | 0.00 | 0.00 | 8 | 1004.1 |
| 20260509215056 | 104 | 215 | 2.0 | 8.0 | 0.00 | 0.00 | 0.00 | 9 | 1004.2 |
| 20260509214556 | 104 | 221 | 3.0 | 7.0 | 0.00 | 0.00 | 0.00 | 9 | 1004.4 |
| 20260509214055 | 104 | 211 | 2.0 | 10.0 | 0.00 | 0.00 | 0.00 | 9 | 1004.4 |
| 20260509213553 | 104 | 250 | 4.0 | 10.0 | 0.00 | 0.00 | 0.00 | 9 | 1004.5 |
| 20260509213058 | 104 | 211 | 1.0 | 6.0 | 0.00 | 0.00 | 0.00 | 9 | 1004.6 |
| 20260509212552 | 103 | 202 | 3.0 | 7.0 | 0.00 | 0.00 | 0.00 | 9 | 1004.7 |
| 20260509212050 | 103 | 235 | 2.0 | 7.0 | 0.00 | 0.00 | 0.00 | 9 | 1004.7 |
| 20260509211554 | 102 | 141 | 1.0 | 10.0 | 0.00 | 0.00 | 0.00 | 9 | 1004.8 |
| 20260509211049 | 102 | 268 | 5.0 | 11.0 | 0.00 | 0.00 | 0.00 | 9 | 1004.9 |
| 20260509210548 | 102 | 241 | 3.0 | 14.0 | 0.00 | 0.00 | 0.00 | 10 | 1005.0 |
| 20260509210051 | 103 | 261 | 6.0 | 14.0 | 0.00 | 0.00 | 0.00 | 10 | 1005.1 |
| 20260509205546 | 103 | 274 | 3.0 | 9.0 | 0.00 | 0.00 | 0.00 | 10 | 1005.1 |
| 20260509205046 | 103 | 247 | 2.0 | 7.0 | 0.00 | 0.00 | 0.00 | 10 | 1005.2 |
| 20260509204544 | 102 | 187 | 3.0 | 9.0 | 0.00 | 0.00 | 0.00 | 10 | 1005.3 |
| 20260509204044 | 102 | 252 | 2.0 | 9.0 | 0.00 | 0.00 | 0.00 | 10 | 1005.4 |
| 20260509203543 | 102 | 323 | 4.0 | 9.0 | 0.00 | 0.00 | 0.00 | 9 | 1005.5 |
| 20260509203043 | 102 | 279 | 2.0 | 7.0 | 0.00 | 0.00 | 0.00 | 10 | 1005.5 |
| 20260509202542 | 102 | 247 | 3.0 | 8.0 | 0.00 | 0.00 | 0.00 | 10 | 1005.6 |
| 20260509202042 | 102 | 189 | 2.0 | 7.0 | 0.00 | 0.00 | 0.00 | 9 | 1005.6 |
| 20260509201542 | 102 | 248 | 4.0 | 8.0 | 0.00 | 0.00 | 0.00 | 10 | 1005.7 |
| 20260509201043 | 102 | 165 | 1.0 | 5.0 | 0.00 | 0.00 | 0.00 | 9 | 1005.8 |
| 20260509200544 | 102 | 221 | 3.0 | 8.0 | 0.00 | 0.00 | 0.00 | 9 | 1005.9 |
| 20260509200041 | 101 | 236 | 2.0 | 8.0 | 0.00 | 0.00 | 0.00 | 10 | 1005.9 |
| 20260509195540 | 101 | 187 | 1.0 | 8.0 | 0.00 | 0.00 | 0.00 | 10 | 1006.0 |
| 20260509195038 | 101 | 252 | 1.0 | 7.0 | 0.00 | 0.00 | 0.00 | 11 | 1006.1 |
| 20260509194539 | 101 | 296 | 2.0 | 7.0 | 0.00 | 0.00 | 0.00 | 11 | 1006.1 |
| 20260509194039 | 101 | 223 | 1.0 | 6.0 | 0.00 | 0.00 | 0.00 | 10 | 1006.2 |
| 20260509193539 | 101 | 230 | 2.0 | 6.0 | 0.00 | 0.00 | 0.00 | 10 | 1006.3 |
| 20260509193039 | 101 | 155 | 2.0 | 7.0 | 0.00 | 0.00 | 0.00 | 11 | 1006.2 |
| 20260509192539 | 100 | 190 | 2.0 | 9.0 | 0.00 | 0.00 | 0.00 | 11 | 1006.4 |
| 20260509192037 | 101 | 207 | 3.0 | 6.0 | 0.00 | 0.00 | 0.00 | 11 | 1006.4 |
| 20260509191536 | 100 | 207 | 1.0 | 6.0 | 0.00 | 0.00 | 0.00 | 11 | 1006.4 |
| 20260509191034 | 100 | 225 | 2.0 | 6.0 | 0.00 | 0.00 | 0.00 | 11 | 1006.6 |
| 20260509190534 | 100 | 78 | 1.0 | 8.0 | 0.00 | 0.00 | 0.00 | 11 | 1006.6 |
| 20260509190038 | 99 | 224 | 1.0 | 8.0 | 0.00 | 0.00 | 0.00 | 11 | 1006.7 |